This demonstration page uses our WeatherBlox Daily Observations layout. Learn more.

Left ArrowRight Arrow

39.08367, -84.50855

Hourly Observations for February 11, 2016

Temp ( °F °C ) Dew Point ( °F °C ) Humidity (%) Winds ( mph kmh ) Pressure ( in mb ) Visibility ( mi km ) Precip ( " mm )
12:53 am 00:53 Cloudy 17 -8.3 6 -14.4 62 62 WNW 5 7 30.21 1023 10 16 N/A
1:53 am 01:53 Cloudy 17 -8.3 7 -13.9 64 64 WNW 7 11 30.21 1023 10 16 N/A
2:53 am 02:53 Cloudy 16 -8.9 7 -13.9 67 67 W 6 9 30.21 1023 10 16 N/A
3:53 am 03:53 Mostly Cloudy 16 -8.9 7 -13.9 67 67 W 3 6 30.21 1023 10 16 N/A
4:53 am 04:53 Cloudy 16 -8.9 8 -13.3 71 71 W 5 7 30.22 1024 10 16 N/A
5:53 am 05:53 Cloudy 17 -8.3 6 -14.4 62 62 NW 5 7 30.24 1024 10 16 N/A
6:53 am 06:53 Cloudy 16 -8.9 7 -13.9 67 67 NW 6 9 30.27 1025 10 16 N/A
7:53 am 07:53 Sunny 15 -9.4 6 -14.4 67 67 WNW 3 6 30.30 1026 10 16 N/A
8:53 am 08:53 Sunny 17 -8.3 6 -14.4 62 62 WNW 5 7 30.33 1027 10 16 N/A
9:53 am 09:53 Sunny 19 -7.2 7 -13.9 59 59 NW 5 7 30.34 1028 10 16 N/A
10:53 am 10:53 Partly Cloudy 19 -7.2 8 -13.3 62 62 SSE 3 6 30.35 1028 10 16 N/A
11:53 am 11:53 Mostly Cloudy 21 -6.1 7 -13.9 54 54 SSW 3 6 30.35 1028 10 16 N/A
12:53 pm 12:53 Mostly Cloudy 22 -5.6 5 -15 48 48 N N/A 30.33 1027 10 16 N/A
1:53 pm 13:53 Mostly Cloudy 23 -5 8 -13.3 53 53 VRB 6 9 30.32 1027 10 16 N/A
2:53 pm 14:53 Mostly Sunny 25 -3.9 7 -13.9 46 46 WNW 6 9 30.32 1027 10 16 N/A
3:53 pm 15:53 Sunny 26 -3.3 5 -15 40 40 N N/A 30.32 1027 10 16 N/A
4:53 pm 16:53 Sunny 25 -3.9 4 -15.6 40 40 WNW 6 9 30.34 1028 10 16 N/A
5:53 pm 17:53 Sunny 24 -4.4 3 -16.1 40 40 N 5 7 30.35 1028 10 16 N/A
6:53 pm 18:53 Clear 21 -6.1 4 -15.6 47 47 N 5 7 30.36 1028 10 16 N/A
7:53 pm 19:53 Clear 20 -6.7 10 -12.2 65 65 N N/A 30.37 1028 10 16 N/A
8:53 pm 20:53 Clear 19 -7.2 11 -11.7 71 71 N N/A 30.36 1028 10 16 N/A
9:53 pm 21:53 Clear 19 -7.2 11 -11.7 71 71 N N/A 30.36 1028 10 16 N/A
10:53 pm 22:53 Clear 18 -7.8 11 -11.7 74 74 NE 3 6 30.35 1028 10 16 N/A
11:53 pm 23:53 Mostly Clear 18 -7.8 12 -11.1 77 77 N N/A 30.33 1027 10 16 N/A

Powered by AerisWeather